Effective Sunday, March 17, 2024, the National Weather Service National Data Buoy Center will discontinue its Dial-A-Buoy Interactive Voice Response system. For more information, see Service Change Notice 24-06 (PDF).

Station CFWM1 - 8411060 - Cutler Farris Wharf, ME Image indicating link to RSS feed of recent meteorological observations for station CFWM1


Conditions at CFWM1 as of
(6:18 am EST)
1118 GMT on 02/25/2024:
     

Click on the graph icon in the table below to see a time series plot of the last five days of that observation.

5-day plot - Wind Direction Wind Direction (WDIR):NNW ( 330 deg true )
5-day plot - Wind Speed Wind Speed (WSPD): 1.0 kts
5-day plot - Wind Gust Wind Gust (GST): 6.0 kts
5-day plot - Wind Speed at 10 Meters Wind Speed at 10 meters (WSPD10M): 1.9 kts
5-day plot - Wind Speed at 20 Meters Wind Speed at 20 meters (WSPD20M): 1.9 kts
5-day plot -  Wind Speed, Wind Gust and Atmospheric Pressure Combined plot of Wind Speed, Gust, and Air Pressure
NOS Water Level Observation Network Water Level
Previous observations
TIME
(EST)
5-day plot - Wind Direction
WDIR
 
5-day plot - Wind Speed
WSPD
kts
5-day plot - Wind Gust
GST
kts
5-day plot - Wave Height
WVHT
ft
5-day plot - Dominant Wave Period
DPD
sec
5-day plot - Average Wave Period
APD
sec
5-day plot - Mean Wave Direction
MWD
 
5-day plot - Atmospheric Pressure
PRES
in
5-day plot - Pressure Tendency
PTDY
in
5-day plot - Air Temperature
ATMP
°F
5-day plot - Water Temperature
WTMP
°F
5-day plot - Dew Point
DEWP
°F
5-day plot - Salinity
SAL
psu
5-day plot - Visibility
VIS
nmi
5-day plot - Tide (above MLLW)
TIDE
ft
2024-02-25 06:12 am N 4.1 5.1------------
2024-02-25 06:06 amNNW 2.9 5.1------------
2024-02-25 06:00 am NW 2.9 5.1------------
2024-02-25 05:54 amNNW 1.9 2.9------------
2024-02-25 05:48 amNNW 1.9 4.1----30.02- 9.5-----
2024-02-25 05:42 am NW 1.9 4.1----30.02- 9.5-----
2024-02-25 05:36 am N 2.9 4.1----30.01- 9.3-----
2024-02-25 05:30 amNNW 1.9 4.1----30.01- 9.3-----
2024-02-25 05:24 amNNW 1.9 5.1----30.01- 9.3-----
2024-02-25 05:18 am NW 2.9 5.1----30.01- 9.5-----
2024-02-25 05:12 amNNW 1.9 5.1----30.01- 9.5-----
2024-02-25 05:06 am NW 2.9 6.0----30.01- 9.9-----
2024-02-25 05:00 am NW 2.9 5.1----30.01+0.11 9.7-----
2024-02-25 04:54 amNNW 4.1 6.0----30.00- 9.7-----
2024-02-25 04:48 am NW 1.9 6.0----30.00- 9.9-----
2024-02-25 04:42 amNNW 2.9 4.1----30.00- 9.9-----
2024-02-25 04:36 amNNW 2.9 5.1----29.99- 10.0-----
2024-02-25 04:30 am NW 1.9 5.1----29.99- 10.4-----
2024-02-25 04:24 am NW 2.9 6.0----29.98- 10.6-----
2024-02-25 04:18 amWNW 2.9 5.1----29.98- 10.6-----
2024-02-25 04:12 am N 1.9 5.1----29.98- 10.6-----
2024-02-25 04:06 am NW 1.9 4.1----29.97- 10.8-----
2024-02-25 04:00 am NW 1.9 5.1----29.96+0.09------
2024-02-25 03:54 amNNW 1.9 5.1----29.96-------
2024-02-25 03:48 amNNW 2.9 8.0----29.96- 10.9-----
2024-02-25 03:42 am NW 5.1 8.9----29.96- 11.1-----
2024-02-25 03:36 am NW 4.1 8.9----29.95- 11.3-----
2024-02-25 03:30 amNNW 5.1 9.9----29.94- 11.3-----
2024-02-25 03:24 amNNW 7.0 14.0----29.94- 11.1-----
2024-02-25 03:18 amNNW 5.1 15.0----29.93- 11.3-----
2024-02-25 03:12 amNNW 4.1 12.0----29.92- 11.3-----
2024-02-25 03:06 am N 7.0 13.0----29.92- 11.3-----
2024-02-25 03:00 am N 7.0 13.0----29.92+0.06 11.5-----
2024-02-25 02:54 am N 7.0 13.0----29.91- 11.5-----
2024-02-25 02:48 am N 8.0 14.0----29.91- 11.7-----
2024-02-25 02:42 am N 8.0 15.0----29.91- 11.7-----
2024-02-25 02:36 amNNW 7.0 14.0----29.91- 11.8-----
2024-02-25 02:30 am N 8.9 13.0----29.91- 12.0-----
2024-02-25 02:24 am N 8.9 15.0----29.91- 12.0-----
2024-02-25 02:18 amNNW 8.9 14.0----29.90- 12.2-----
2024-02-25 02:12 amNNW 7.0 15.9----29.90- 12.4-----
2024-02-25 02:06 am N 8.9 15.0----29.90- 12.4-----
2024-02-25 02:00 amNNW 8.9 15.0----29.90+0.07 12.4-----
2024-02-25 01:54 am N 9.9 17.1----29.90- 12.6-----
2024-02-25 01:48 amNNW 9.9 15.0----29.89- 12.7-----
2024-02-25 01:42 amNNW 8.0 15.9----29.89- 12.7-----
2024-02-25 01:36 amNNW 9.9 14.0----29.89- 12.9-----
2024-02-25 01:30 am N 8.9 17.1----29.89- 13.1-----
2024-02-25 01:24 amNNW 8.9 14.0----29.89- 13.3-----
2024-02-25 01:18 am N 8.9 14.0----29.88- 13.3-----
2024-02-25 01:12 amNNW 8.0 12.0----29.88- 13.5-----
2024-02-25 01:06 am N 8.9 15.9----29.88- 13.5-----
2024-02-25 01:00 amNNW 8.0 12.0----29.88+0.08 13.6-----
2024-02-25 12:54 amNNW 7.0 15.0----29.87- 13.8-----
2024-02-25 12:48 am N 8.9 12.0----29.87- 14.0-----
2024-02-25 12:42 amNNW 8.9 17.1----29.87- 14.0-----
2024-02-25 12:36 am N 8.9 15.0----29.86- 14.2-----
2024-02-25 12:30 am N 9.9 15.0----29.86- 14.2-----
2024-02-25 12:24 am N 8.0 11.1----29.86- 14.4-----
2024-02-25 12:18 amNNW 7.0 9.9----29.86- 14.5-----
2024-02-25 12:12 am N 7.0 14.0----29.86- 14.7-----
2024-02-25 12:06 am NW 5.1 13.0----29.86- 14.9-----
2024-02-25 12:00 amNNW 5.1 8.9----29.85+0.09 15.1-----
2024-02-24 11:54 pm N 6.0 11.1----29.85- 15.1-----
2024-02-24 11:48 pm N 5.1 12.0----29.85-------
2024-02-24 11:42 pm N 5.1 12.0----29.85-------
2024-02-24 11:36 pm N 8.9 12.0----29.85-------
2024-02-24 11:30 pm N 5.1 12.0----29.85- 15.8-----
2024-02-24 11:24 pm N 8.0 14.0----29.84- 16.0-----
2024-02-24 11:18 pmNNW 8.9 12.0----29.84- 16.2-----
2024-02-24 11:12 pmNNW 5.1 9.9----29.83- 16.3-----
2024-02-24 11:06 pmNNW 7.0 12.0----29.83- 16.5-----
2024-02-24 11:00 pmNNW 7.0 13.0----29.83+0.10 16.7-----
2024-02-24 10:54 pmNNW 7.0 14.0----29.82- 16.9-----
2024-02-24 10:48 pmNNW 5.1 11.1----29.82- 17.1-----
2024-02-24 10:42 pmNNW 5.1 11.1----29.82- 17.2-----
2024-02-24 10:36 pmNNW 8.0 15.0----29.81- 17.4-----
2024-02-24 10:30 pm N 7.0 12.0----29.81- 17.6-----
2024-02-24 10:24 pmNNW 6.0 12.0----29.80- 18.0-----
2024-02-24 10:18 pmNNW 7.0 13.0------ 18.0-----
2024-02-24 10:12 pmNNW 4.1 12.0------ 18.3-----
2024-02-24 10:06 pm N 7.0 11.1------ 18.5-----
2024-02-24 10:00 pmNNW 4.1 8.0----29.79+0.12 18.7-----
2024-02-24 09:54 pm N 5.1 9.9----29.79- 18.9-----
2024-02-24 09:48 pm N 6.0 9.9----29.79- 19.0-----
2024-02-24 09:42 pm N 6.0 8.0----29.79- 19.2-----
2024-02-24 09:36 pm N 4.1 8.9----29.78- 19.4-----
2024-02-24 09:30 pm N 6.0 14.0----29.78- 19.6-----
2024-02-24 09:24 pmNNW 5.1 12.0----29.78- 19.8-----
2024-02-24 09:18 pm N 8.0 9.9----29.78-------
2024-02-24 09:12 pm N 4.1 12.0----29.77-------
2024-02-24 09:06 pm N 8.9 12.0----29.77-------
2024-02-24 09:00 pm-------29.76+0.14------
2024-02-24 08:54 pm-------29.76-------
2024-02-24 08:48 pm N 6.0 13.0----29.75-------
2024-02-24 08:42 pm N 9.9 15.0----29.75-------
2024-02-24 08:36 pm N 8.0 15.0----29.75-------
2024-02-24 08:30 pm N 8.0 17.1----29.75- 21.2-----
2024-02-24 08:24 pmNNW 11.1 14.0----29.75- 21.4-----
2024-02-24 08:18 pm N 8.9 12.0----29.74- 21.6-----
2024-02-24 08:12 pm N 4.1 11.1----29.74- 21.6-----
2024-02-24 08:06 pm N 6.0 12.0----29.73- 21.7-----
2024-02-24 08:00 pm N 8.0 13.0----29.73+0.15------
2024-02-24 07:54 pmNNW 8.0 13.0----29.72-------
2024-02-24 07:48 pmNNW 6.0 8.9----29.72-------
2024-02-24 07:42 pm N 5.1 8.9----29.71-------
2024-02-24 07:36 pmNNW 6.0 14.0----29.71-------
2024-02-24 07:30 pmNNW 8.0 15.0----29.70-------
2024-02-24 07:24 pm N 6.0 11.1----29.69-------
2024-02-24 07:18 pmNNW 7.0 12.0----29.69- 23.2-----
2024-02-24 07:12 pm N 6.0 11.1----29.68- 23.2-----
2024-02-24 07:06 pm N 5.1 9.9----29.68- 23.5-----
2024-02-24 07:00 pm N 6.0 14.0----29.67+0.15 23.7-----
2024-02-24 06:54 pm N 6.0 17.1----29.67- 23.9-----
2024-02-24 06:48 pm N 8.9 14.0----29.67- 24.1-----
2024-02-24 06:42 pmNNW 6.0 13.0----29.66- 24.3-----
2024-02-24 06:36 pm N 4.1 9.9----29.66- 24.4-----
2024-02-24 06:30 pmNNW 4.1 14.0----29.65-------
2024-02-24 06:24 pm N 6.0 12.0----29.65-------
2024-02-24 06:00 pmNNW 8.0 13.0----29.63+0.14 25.3-----
2024-02-24 05:54 pm N 7.0 11.1----29.62- 25.3-----
2024-02-24 05:48 pmNNW 6.0 12.0----29.62- 25.5-----
2024-02-24 05:42 pm N 6.0 12.0----29.61- 25.7-----
2024-02-24 05:36 pm N 8.0 15.0----29.61- 25.9-----
2024-02-24 05:30 pm N 7.0 15.9----29.60- 25.9-----
2024-02-24 05:24 pmNNW 8.9 14.0----29.59- 26.2-----
2024-02-24 05:18 pmNNW 6.0 12.0----29.59-------
2024-02-24 05:12 pm N 8.9 13.0----29.58-------
2024-02-24 05:06 pmNNW 7.0 19.0----29.58-------
2024-02-24 05:00 pm N 11.1 15.9----29.58+0.12------
2024-02-24 04:54 pmNNW 8.0 12.0----29.57-------
2024-02-24 04:48 pm N 7.0 12.0----29.56- 27.3-----
2024-02-24 04:42 pm N 6.0 11.1----29.55- 27.5-----
2024-02-24 04:36 pmNNW 7.0 15.9----29.55- 27.7-----
2024-02-24 04:30 pm N 7.0 13.0----29.54- 27.9-----
2024-02-24 04:24 pmNNW 7.0 18.1----29.54- 28.0-----
2024-02-24 04:18 pmNNW 8.0 15.9----29.54- 28.2-----
2024-02-24 04:12 pmNNW 11.1 19.0----29.53- 28.0-----
2024-02-24 04:06 pmNNW 7.0 14.0----29.53- 28.4-----
2024-02-24 04:00 pm-------29.52+0.09 28.8-----
2024-02-24 03:54 pm-------29.52- 28.6-----
2024-02-24 03:48 pmNNW 7.0 17.1----29.51-------
2024-02-24 03:42 pmNNW 8.0 18.1----29.51-------
2024-02-24 03:36 pmNNW 5.1 15.9----29.50-------
2024-02-24 03:30 pm N 7.0 18.1------ 29.3-----
2024-02-24 03:24 pm N 8.0 21.0------ 29.3-----
2024-02-24 03:18 pm-------29.49- 28.9-----
2024-02-24 03:12 pm-------29.49- 29.1-----
2024-02-24 03:06 pm-------29.49- 28.9-----
2024-02-24 03:00 pm N 8.9 18.1----29.48+0.06 29.3-----
2024-02-24 02:54 pm N 8.0 19.0----29.48- 29.5-----
2024-02-24 02:48 pmNNW 8.0 18.1----29.47- 29.8-----
2024-02-24 02:42 pmNNW 9.9 14.0----29.47- 29.7-----
2024-02-24 02:36 pmNNW 8.0 18.1----29.47- 29.3-----
2024-02-24 02:30 pm N 6.0 15.0----29.47- 29.8-----
2024-02-24 02:24 pm N 8.9 19.0----29.47- 28.9-----
2024-02-24 02:18 pm N 8.0 18.1----29.46- 29.5-----
2024-02-24 02:12 pm N 11.1 18.1----29.46- 28.9-----
2024-02-24 02:06 pm N 6.0 14.0----29.45- 29.3-----
2024-02-24 02:00 pm N 9.9 15.9----29.45+0.03------
2024-02-24 01:54 pm N 8.9 19.0----29.45-------
2024-02-24 01:48 pmNNW 9.9 22.9----29.45- 28.0-----
2024-02-24 01:42 pm N 12.0 24.1----29.45- 27.5-----
2024-02-24 01:36 pm N 11.1 19.0----29.45- 27.7-----
2024-02-24 01:30 pm N 9.9 18.1----29.45- 28.0-----
2024-02-24 01:24 pm N 8.0 15.9----29.44- 27.9-----
2024-02-24 01:18 pm N 7.0 21.0----29.44- 28.0-----
2024-02-24 01:12 pm N 11.1 20.0----29.44- 27.5-----
2024-02-24 01:06 pm N 13.0 24.1----29.44- 27.7-----
2024-02-24 01:00 pm N 11.1 15.9----29.44-------
2024-02-24 12:54 pm N 13.0 21.0----29.44-------
2024-02-24 12:48 pm N 9.9 22.0----29.43-------
2024-02-24 12:42 pm N 12.0 22.0----29.43-------
2024-02-24 12:36 pm N 14.0 19.0----29.43-------
2024-02-24 12:30 pm N 12.0 21.0----29.42- 28.6-----
2024-02-24 12:24 pm N 12.0 22.9----29.42- 28.8-----
2024-02-24 12:18 pm N 8.9 21.0----29.42- 28.9-----
2024-02-24 12:12 pm N 12.0 18.1----29.43- 28.4-----
2024-02-24 12:06 pm N 8.9 22.0----29.42- 28.4-----
2024-02-24 12:00 pm N 8.0 20.0----29.42+0.04 28.8-----
2024-02-24 11:54 am N 13.0 22.9----29.42- 28.0-----
2024-02-24 11:48 am N 9.9 20.0----29.42-------
2024-02-24 11:42 am N 9.9 15.0----29.42-------
2024-02-24 11:36 am N 8.9 15.0----29.42-------
2024-02-24 11:30 am N 11.1 17.1----29.42-------
2024-02-24 11:24 am N 8.9 21.0----29.42-------
2024-02-24 11:18 amNNW 13.0 15.9------ 28.6-----
2024-02-24 11:12 am N 7.0 19.0------ 29.7-----
2024-02-24 11:06 am N 7.0 18.1------ 30.0-----
2024-02-24 11:00 am N 12.0 21.0----29.42-------
2024-02-24 10:54 am N 8.9 17.1----29.42-------
2024-02-24 10:48 am N 11.1 21.0----29.41-------
2024-02-24 10:42 am N 11.1 21.0----29.42-------
2024-02-24 10:36 am N 8.9 17.1----29.41-------
2024-02-24 10:30 amNNE 8.0 22.9----29.41- 28.9-----
2024-02-24 10:24 am N 8.0 19.0----29.41- 29.5-----
2024-02-24 10:18 am N 9.9 19.0----29.41- 30.2-----
2024-02-24 10:12 am N 8.9 14.0----29.41- 30.4-----
2024-02-24 10:06 am N 8.0 17.1----29.42- 30.4-----
2024-02-24 10:00 am N 7.0 17.1------------
2024-02-24 09:54 am N 14.0 21.0------------
2024-02-24 09:48 am N 9.9 22.0----29.41-------
2024-02-24 09:42 am N 11.1 19.0----29.41-------
2024-02-24 09:36 amNNW 11.1 15.0----29.41-------
2024-02-24 09:30 am N 8.9 17.1----29.40- 31.8-----
2024-02-24 09:24 am N 9.9 15.0----29.40- 32.4-----
2024-02-24 09:18 am N 8.9 22.9----29.39- 32.4-----
2024-02-24 09:12 am N 8.0 18.1----29.39- 32.7-----
2024-02-24 09:06 am N 13.0 19.0----29.39- 32.9-----
2024-02-24 09:00 am N 5.1 15.9----29.39+0.04 33.4-----
2024-02-24 08:54 am N 8.9 15.9----29.39- 33.6-----
2024-02-24 08:48 am N 8.9 18.1------------
2024-02-24 08:42 am N 11.1 19.0------------
2024-02-24 08:36 am N 8.9 18.1------------
2024-02-24 08:30 am N 11.1 17.1----29.37-------
2024-02-24 08:24 am N 8.9 18.1----29.36-------
2024-02-24 08:18 am N 8.0 13.0----29.36-------
2024-02-24 08:12 am N 7.0 12.0----29.36-------
2024-02-24 08:06 am N 8.9 12.0----29.36-------
2024-02-24 08:00 am--------- 34.5-----
2024-02-24 07:54 am--------- 34.5-----
2024-02-24 07:48 am N 8.0 14.0----29.36- 34.5-----
2024-02-24 07:42 am N 8.0 15.9----29.36- 34.5-----
2024-02-24 07:36 am N 7.0 11.1----29.36- 34.5-----
2024-02-24 07:30 amNNE 4.1 9.9----29.36-------
2024-02-24 07:24 amNNE 6.0 8.9----29.35-------
2024-02-24 07:18 am N 7.0 12.0----29.35-------
2024-02-24 07:12 am N 5.1 8.9----29.33-------
2024-02-24 07:06 am N 6.0 15.0----29.33-------
2024-02-24 07:00 am N 6.0 15.9----29.33-0.01 34.3-----
2024-02-24 06:54 am N 7.0 14.0----29.33- 34.3-----